Simultaneous Nadir Overpasses (SNOs) Predictions

Prediction of SNOs between METOP-A and TERRA Satellite Orbit:

Table of predicted SNOs for the next 14.0 days since TLE Epoch: 1/31/2015
Index Date (METOP-A) Time (METOP-A) Lat,Lon (METOP-A) SZA (METOP-A ) Date (TERRA) Time (TERRA) Lat,Lon (TERRA) SZA (TERRA ) Distance(km) Time Diff (sec)
1 02/01/2015 18:49:26 -81.31, 124.75 79.38 02/01/2015 18:50:21 -81.32, 124.84 79.34 1.92 55
2 02/01/2015 19:40:06 81.32, -67.45 100.67 02/01/2015 19:39:47 81.32, -67.43 100.67 0.83 19
3 02/04/2015 14:23:51 -81.31,-168.97 80.22 02/04/2015 14:24:35 -81.31,-168.89 80.19 1.42 44
4 02/04/2015 15:14:31 81.32, -1.18 99.83 02/04/2015 15:14:01 81.31, -1.19 99.81 0.28 30
5 02/07/2015 09:58:15 -81.31,-102.36 81.05 02/07/2015 09:58:48 -81.31,-102.39 81.04 0.53 33
6 02/07/2015 10:48:54 81.32, 65.40 98.99 02/07/2015 10:48:13 81.31, 65.27 98.95 2.23 41
7 02/10/2015 05:32:39 -81.31, -36.21 81.97 02/10/2015 05:33:00 -81.31, -36.05 81.95 2.61 21
8 02/10/2015 06:23:18 81.32, 131.92 98.11 02/10/2015 06:22:25 81.33, 131.96 98.10 1.15 53
9 02/13/2015 01:07:02 -81.32, 30.66 82.84 02/13/2015 01:07:12 -81.31, 30.51 82.86 2.58 10




NCC Satellite Simultaneous Nadir Overpasses (SNOs) Prediction Service
